User: anonymous   Login
Location: Kernascl�den
(48.0062°N, 3.3198°W)
Time: 21:35:48
(UTC+00:00)
Language:

Meteor 2-10 Rocket - Orbit

View from above orbital plane
View from above orbital plane
View from above satellite
View from above satellite

Ground track
Ground track

The orbit data is extracted from the following two-line orbital elements,

1 14453U 83109B   21112.18324286  .00000049  00000-0  14977-4 0  9994
2 14453  81.1639 132.8034 0104057 319.2476  40.0950 14.24747386947584
Epoch (UTC): 22 April 2021 04:23:52
Eccentricity: 0.0104057
inclination: 81.1639°
perigee height: 734 km
apogee height: 884 km
right ascension of ascending node: 132.8034°
argument of perigee: 319.2476°
revolutions per day: 14.24747386
mean anomaly at epoch: 40.0950°
orbit number at epoch: 94758

The dashed part of the orbit path shows where the satellite is in the earth's shadow,  

DLR